This is the latest recevied weather packets stored in our database for station/object KC3DGM. If no packets are shown the sender has not sent any weather packets the latest 10 day(s).
| Time | Temp. | Humidity | Pressure | Rain* | Wind** | Luminosity | Snow |
|---|---|---|---|---|---|---|---|
| 1777319413 | 22.78° C | 39% | 989.9 hPa | 0 mm | - | 103 W/m² | - |
| 1777319109 | 22.78° C | 42% | 989.8 hPa | 0 mm | - | 95 W/m² | - |
| 1777318807 | 22.78° C | 38% | 989.8 hPa | 0 mm | - | 107 W/m² | - |
| 1777318503 | 22.22° C | 41% | 990.1 hPa | 0 mm | - | 124 W/m² | - |
| 1777318200 | 22.78° C | 40% | 990 hPa | 0 mm | - | 429 W/m² | - |
| 1777317897 | 22.78° C | 38% | 990.4 hPa | 0 mm | - | 520 W/m² | - |
| 1777317594 | 22.78° C | 40% | 990.2 hPa | 0 mm | - | 110 W/m² | - |
| 1777317291 | 22.22° C | 40% | 990.2 hPa | 0 mm | - | 75 W/m² | - |
| 1777316986 | 22.78° C | 42% | 990.6 hPa | 0 mm | - | 413 W/m² | - |
| 1777316684 | 22.78° C | 41% | 990.1 hPa | 0 mm | - | 496 W/m² | - |
| 1777316379 | 22.78° C | 40% | 990.6 hPa | 0 mm | - | 492 W/m² | - |
| 1777316078 | 22.22° C | 43% | 990.5 hPa | 0 mm | - | 432 W/m² | - |
| 1777315776 | 22.22° C | 42% | 990.6 hPa | 0 mm | - | 467 W/m² | - |
| 1777315473 | 22.22° C | 40% | 990.6 hPa | 0 mm | - | 620 W/m² | - |
| 1777315171 | 22.78° C | 43% | 990.7 hPa | 0 mm | - | 614 W/m² | - |
| 1777314867 | 22.78° C | 42% | 990.8 hPa | 0 mm | - | 644 W/m² | - |
| 1777314563 | 22.78° C | 43% | 991.2 hPa | 0 mm | - | 607 W/m² | - |
| 1777314260 | 22.22° C | 47% | 991.1 hPa | 0 mm | - | 546 W/m² | - |
| 1777313958 | 22.22° C | 43% | 991.3 hPa | 0 mm | - | 550 W/m² | - |
| 1777313655 | 21.67° C | 42% | 990.9 hPa | 0 mm | - | 581 W/m² | - |
| 1777313353 | 21.67° C | 42% | 991.1 hPa | 0 mm | - | 642 W/m² | - |
| 1777313049 | 21.67° C | 46% | 991.3 hPa | 0 mm | - | 643 W/m² | - |
| 1777312745 | 22.22° C | 43% | 991.3 hPa | 0 mm | - | 608 W/m² | - |
| 1777312441 | 21.67° C | 43% | 991.5 hPa | 0 mm | - | 603 W/m² | - |
| 1777312139 | 21.67° C | 44% | 991.4 hPa | 0 mm | - | 590 W/m² | - |
* Rain latest hour (hover to see other rain measurements)
** Current wind speed in m/s (hover to see current wind gust speed)